This is the latest recevied weather packets stored in our database for station/object KY4LEX. If no packets are shown the sender has not sent any weather packets the latest 10 day(s).
| Time | Temp. | Humidity | Pressure | Rain* | Wind** | Luminosity | Snow |
|---|---|---|---|---|---|---|---|
| 1777602097 | 8.89° C | 79% | 1021.1 hPa | 0 mm | - | 0 W/m² | - |
| 1777601488 | 8.89° C | 77% | 1021.3 hPa | 0 mm | - | 0 W/m² | - |
| 1777600882 | 9.44° C | 76% | 1021.3 hPa | 0 mm | - | 0 W/m² | - |
| 1777586309 | 18.33° C | 32% | 1020.2 hPa | 0 mm | - | 246 W/m² | - |
| 1777586007 | 18.33° C | 32% | 1020 hPa | 0 mm | - | 260 W/m² | - |
| 1777585702 | 18.89° C | 31% | 1020.2 hPa | 0 mm | - | 273 W/m² | - |
| 1777583892 | 18.33° C | 32% | 1020.2 hPa | 0 mm | - | 352 W/m² | - |
| 1777580862 | 17.78° C | 37% | 1020.8 hPa | 0 mm | - | 483 W/m² | - |
| 1777579950 | 17.78° C | 36% | 1021.3 hPa | 0 mm | - | 526 W/m² | - |
| 1777579645 | 18.89° C | 33% | 1021.3 hPa | 0 mm | - | 544 W/m² | - |
| 1777578735 | 18.33° C | 35% | 1021.4 hPa | 0 mm | - | 580 W/m² | - |
| 1777578435 | 17.78° C | 36% | 1021.4 hPa | 0 mm | - | 585 W/m² | - |
| 1777577826 | 17.22° C | 36% | 1021.4 hPa | 0 mm | - | 598 W/m² | - |
| 1777577219 | 17.78° C | 38% | 1021.6 hPa | 0 mm | - | 629 W/m² | - |
| 1777576306 | 18.33° C | 37% | 1021.4 hPa | 0 mm | - | 653 W/m² | - |
| 1777575091 | 16.67° C | 42% | 1021.2 hPa | 0 mm | - | 697 W/m² | - |
| 1777574485 | 17.78° C | 38% | 1021.3 hPa | 0 mm | - | 707 W/m² | - |
| 1777572963 | 16.67° C | 40% | 1021.4 hPa | 0 mm | - | 783 W/m² | - |
| 1777572359 | 15.56° C | 43% | 1022 hPa | 0 mm | - | 610 W/m² | - |
| 1777571755 | 15° C | 43% | 1022.1 hPa | 0 mm | - | 877 W/m² | - |
| 1777570239 | 16.67° C | 44% | 1022.1 hPa | 0 mm | - | 844 W/m² | - |
| 1777569939 | 15.56° C | 43% | 1021.9 hPa | 0 mm | - | 835 W/m² | - |
| 1777568119 | 16.11° C | 46% | 1022.1 hPa | 0 mm | - | 791 W/m² | - |
| 1777567512 | 13.89° C | 50% | 1022.1 hPa | 0 mm | - | 803 W/m² | - |
| 1777566908 | 15.56° C | 48% | 1022.3 hPa | 0 mm | - | 174 W/m² | - |
* Rain latest hour (hover to see other rain measurements)
** Current wind speed in m/s (hover to see current wind gust speed)